Location: Guferjoch
(46.7462°N, 8.4506°E)
Time: 00:22:25
(UTC+00:00)

Meteor 1-25 Rocket - Pass Details

Date: 14 July 2020
Orbit: 837 x 891 km, 81.2° (Epoch: 03 August)

Event Time Altitude Azimuth Distance (km) Brightness Sun altitude
Exits shadow 00:47:42 35° 214° (SW) 1,328 4.7 -19.5°
Maximum altitude 00:50:00 65° 283° (WNW) 928 4.3 -19.4°
Drops below altitude 10° 00:55:33 10° 6° (N) 2,466 7.8 -19.1°
Sets 00:57:59 0° 9° (N) 3,402 8.9 -18.9°
